Time,TemperatureF,DewpointF,PressureIn,WindDirection,WindDirectionDegrees,WindSpeedMPH,WindSpeedGustMPH,Humidity,HourlyPrecipIn,Conditions,Clouds,dailyrainin,SolarRadiationWatts/m^2,SoftwareType,DateUTC
2013-10-04 00:08:00,48.0,23.0,-100.00,NNW,333,5.0,11.0,37,0.00,,,0.00,0.000000,,2013-10-04 06:08:00,
2013-10-04 00:17:00,48.0,23.0,-100.00,NNW,333,5.0,11.0,37,0.00,,,0.00,0.000000,,2013-10-04 06:17:00,
2013-10-04 00:23:00,50.0,23.0,-100.00,South,174,4.0,17.0,35,0.00,,,0.00,0.000000,,2013-10-04 06:23:00,
2013-10-04 00:58:00,50.0,23.0,-100.00,South,174,4.0,17.0,35,0.00,,,0.00,0.000000,,2013-10-04 06:58:00,
2013-10-04 01:07:00,50.0,23.0,-100.00,South,174,4.0,17.0,35,0.00,,,0.00,0.000000,,2013-10-04 07:07:00,
2013-10-04 01:17:00,50.0,23.0,-100.00,South,174,4.0,17.0,35,0.00,,,0.00,0.000000,,2013-10-04 07:17:00,
2013-10-04 01:23:00,50.0,25.0,-100.00,WSW,254,10.0,19.0,38,0.00,,,0.00,0.000000,,2013-10-04 07:23:00,
2013-10-04 01:58:00,50.0,25.0,-100.00,WSW,254,10.0,19.0,38,0.00,,,0.00,0.000000,,2013-10-04 07:58:00,
2013-10-04 02:07:00,50.0,25.0,-100.00,WSW,254,10.0,19.0,38,0.00,,,0.00,0.000000,,2013-10-04 08:07:00,
2013-10-04 02:16:00,50.0,25.0,-100.00,WSW,254,10.0,19.0,38,0.00,,,0.00,0.000000,,2013-10-04 08:16:00,
2013-10-04 02:23:00,42.0,26.0,-100.00,WSW,250,17.0,29.0,53,0.00,,,0.00,0.000000,,2013-10-04 08:23:00,
2013-10-04 02:58:00,42.0,26.0,-100.00,WSW,250,17.0,29.0,53,0.00,,,0.00,0.000000,,2013-10-04 08:58:00,
2013-10-04 03:06:00,42.0,26.0,-100.00,WSW,250,17.0,29.0,53,0.00,,,0.00,0.000000,,2013-10-04 09:06:00,
2013-10-04 03:16:00,42.0,26.0,-100.00,WSW,250,17.0,29.0,53,0.00,,,0.00,0.000000,,2013-10-04 09:16:00,
2013-10-04 03:23:00,37.0,26.0,-100.00,WSW,254,18.0,34.0,63,0.00,,,0.00,0.000000,,2013-10-04 09:23:00,
2013-10-04 04:00:00,37.0,26.0,-100.00,WSW,254,18.0,34.0,63,0.00,,,0.00,0.000000,,2013-10-04 10:00:00,
2013-10-04 04:09:00,37.0,26.0,-100.00,WSW,254,18.0,34.0,63,0.00,,,0.00,0.000000,,2013-10-04 10:09:00,
2013-10-04 04:19:00,37.0,26.0,-100.00,WSW,254,18.0,34.0,63,0.00,,,0.00,0.000000,,2013-10-04 10:19:00,
2013-10-04 04:23:00,34.0,20.0,-100.00,WSW,243,10.0,31.0,56,0.00,,,0.00,0.000000,,2013-10-04 10:23:00,
2013-10-04 05:00:00,34.0,20.0,-100.00,WSW,243,10.0,31.0,56,0.00,,,0.00,0.000000,,2013-10-04 11:00:00,
2013-10-04 05:09:00,34.0,20.0,-100.00,WSW,243,10.0,31.0,56,0.00,,,0.00,0.000000,,2013-10-04 11:09:00,
2013-10-04 05:19:00,34.0,20.0,-100.00,WSW,243,10.0,31.0,56,0.00,,,0.00,0.000000,,2013-10-04 11:19:00,
2013-10-04 05:23:00,35.0,17.0,-100.00,WNW,291,6.0,22.0,47,0.00,,,0.00,0.000000,,2013-10-04 11:23:00,
2013-10-04 06:00:00,35.0,17.0,-100.00,WNW,291,6.0,22.0,47,0.00,,,0.00,0.000000,,2013-10-04 12:00:00,
2013-10-04 06:09:00,35.0,17.0,-100.00,WNW,291,6.0,22.0,47,0.00,,,0.00,0.000000,,2013-10-04 12:09:00,
2013-10-04 06:19:00,35.0,17.0,-100.00,WNW,291,6.0,22.0,47,0.00,,,0.00,0.000000,,2013-10-04 12:19:00,
2013-10-04 06:23:00,32.0,15.0,-100.00,SW,217,9.0,20.0,48,0.00,,,-99.99,0.000000,,2013-10-04 12:23:00,
2013-10-04 07:00:00,32.0,15.0,-100.00,SW,217,9.0,20.0,48,0.00,,,-99.99,0.000000,,2013-10-04 13:00:00,
2013-10-04 07:09:00,32.0,15.0,-100.00,SW,217,9.0,20.0,48,0.00,,,-99.99,0.000000,,2013-10-04 13:09:00,
2013-10-04 07:18:00,32.0,15.0,-100.00,SW,217,9.0,20.0,48,0.00,,,-99.99,0.000000,,2013-10-04 13:18:00,
2013-10-04 07:23:00,32.0,13.0,-100.00,WSW,250,5.0,17.0,44,0.00,,,0.00,12.000000,,2013-10-04 13:23:00,
2013-10-04 07:59:00,32.0,13.0,-100.00,WSW,250,5.0,17.0,44,0.00,,,0.00,12.000000,,2013-10-04 13:59:00,
2013-10-04 08:08:00,32.0,13.0,-100.00,WSW,250,5.0,17.0,44,0.00,,,0.00,12.000000,,2013-10-04 14:08:00,
2013-10-04 08:18:00,32.0,13.0,-100.00,WSW,250,5.0,17.0,44,0.00,,,0.00,12.000000,,2013-10-04 14:18:00,
2013-10-04 08:23:00,37.0,11.0,-100.00,West,275,6.0,16.0,34,0.00,,,0.00,216.000000,,2013-10-04 14:23:00,
2013-10-04 09:00:00,37.0,11.0,-100.00,West,275,6.0,16.0,34,0.00,,,0.00,216.000000,,2013-10-04 15:00:00,
2013-10-04 09:09:00,37.0,11.0,-100.00,West,275,6.0,16.0,34,0.00,,,0.00,216.000000,,2013-10-04 15:09:00,
2013-10-04 09:19:00,37.0,11.0,-100.00,West,275,6.0,16.0,34,0.00,,,0.00,216.000000,,2013-10-04 15:19:00,
2013-10-04 09:23:00,38.0,14.0,-100.00,West,269,7.0,18.0,37,0.00,,,-99.99,450.000000,,2013-10-04 15:23:00,
2013-10-04 10:01:00,38.0,14.0,-100.00,West,269,7.0,18.0,37,0.00,,,-99.99,450.000000,,2013-10-04 16:01:00,
2013-10-04 10:10:00,38.0,14.0,-100.00,West,269,7.0,18.0,37,0.00,,,-99.99,450.000000,,2013-10-04 16:10:00,
2013-10-04 10:19:00,38.0,14.0,-100.00,West,269,7.0,18.0,37,0.00,,,-99.99,450.000000,,2013-10-04 16:19:00,
2013-10-04 10:23:00,38.0,12.0,-100.00,SW,225,11.0,24.0,34,0.00,,,0.00,570.000000,,2013-10-04 16:23:00,
2013-10-04 11:00:00,38.0,12.0,-100.00,SW,225,11.0,24.0,34,0.00,,,0.00,570.000000,,2013-10-04 17:00:00,
2013-10-04 11:09:00,38.0,12.0,-100.00,SW,225,11.0,24.0,34,0.00,,,0.00,570.000000,,2013-10-04 17:09:00,
2013-10-04 11:19:00,38.0,12.0,-100.00,SW,225,11.0,24.0,34,0.00,,,0.00,570.000000,,2013-10-04 17:19:00,
2013-10-04 11:23:00,37.0,13.0,-100.00,East,82,5.0,19.0,36,0.00,,,0.00,594.000000,,2013-10-04 17:23:00,
2013-10-04 12:02:00,37.0,13.0,-100.00,East,82,5.0,19.0,36,0.00,,,0.00,594.000000,,2013-10-04 18:02:00,
2013-10-04 12:10:00,37.0,13.0,-100.00,East,82,5.0,19.0,36,0.00,,,0.00,594.000000,,2013-10-04 18:10:00,
2013-10-04 12:20:00,37.0,13.0,-100.00,East,82,5.0,19.0,36,0.00,,,0.00,594.000000,,2013-10-04 18:20:00,
2013-10-04 12:56:00,37.0,15.0,-100.00,North,358,5.0,14.0,40,0.00,,,0.00,486.000000,,2013-10-04 18:56:00,
2013-10-04 13:02:00,37.0,15.0,-100.00,North,358,5.0,14.0,40,0.00,,,0.00,486.000000,,2013-10-04 19:02:00,
2013-10-04 13:12:00,37.0,15.0,-100.00,North,358,5.0,14.0,40,0.00,,,0.00,486.000000,,2013-10-04 19:12:00,
2013-10-04 13:22:00,37.0,15.0,-100.00,North,358,5.0,14.0,40,0.00,,,0.00,486.000000,,2013-10-04 19:22:00,
2013-10-04 13:52:00,36.0,10.0,-100.00,NNW,339,6.0,15.0,34,0.00,,,0.00,412.000000,,2013-10-04 19:52:00,
2013-10-04 14:02:00,36.0,10.0,-100.00,NNW,339,6.0,15.0,34,0.00,,,0.00,412.000000,,2013-10-04 20:02:00,
2013-10-04 14:11:00,36.0,10.0,-100.00,NNW,339,6.0,15.0,34,0.00,,,0.00,412.000000,,2013-10-04 20:11:00,
2013-10-04 14:22:00,36.0,10.0,-100.00,NNW,339,6.0,15.0,34,0.00,,,0.00,412.000000,,2013-10-04 20:22:00,
2013-10-04 14:53:00,33.0,16.0,-100.00,NNW,329,10.0,27.0,49,0.00,,,0.00,425.000000,,2013-10-04 20:53:00,
2013-10-04 15:01:00,33.0,16.0,-100.00,NNW,329,10.0,27.0,49,0.00,,,0.00,425.000000,,2013-10-04 21:01:00,
2013-10-04 15:12:00,33.0,16.0,-100.00,NNW,329,10.0,27.0,49,0.00,,,0.00,425.000000,,2013-10-04 21:12:00,
2013-10-04 15:22:00,33.0,16.0,-100.00,NNW,329,10.0,27.0,49,0.00,,,0.00,425.000000,,2013-10-04 21:22:00,
2013-10-04 15:23:00,33.0,13.0,-100.00,West,279,15.0,26.0,43,0.00,,,0.00,314.000000,,2013-10-04 21:23:00,
2013-10-04 15:54:00,33.0,13.0,-100.00,West,279,15.0,26.0,43,0.00,,,0.00,314.000000,,2013-10-04 21:54:00,
2013-10-04 16:03:00,33.0,13.0,-100.00,West,279,15.0,26.0,43,0.00,,,0.00,314.000000,,2013-10-04 22:03:00,
2013-10-04 16:12:00,33.0,13.0,-100.00,West,279,15.0,26.0,43,0.00,,,0.00,314.000000,,2013-10-04 22:12:00,
2013-10-04 16:52:00,34.0,12.0,-100.00,WSW,253,9.0,26.0,39,0.00,,,0.00,129.000000,,2013-10-04 22:52:00,
2013-10-04 17:03:00,34.0,12.0,-100.00,WSW,253,9.0,26.0,39,0.00,,,0.00,129.000000,,2013-10-04 23:03:00,
2013-10-04 17:12:00,34.0,12.0,-100.00,WSW,253,9.0,26.0,39,0.00,,,0.00,129.000000,,2013-10-04 23:12:00,
2013-10-04 17:22:00,34.0,12.0,-100.00,WSW,253,9.0,26.0,39,0.00,,,0.00,129.000000,,2013-10-04 23:22:00,
2013-10-04 17:53:00,33.0,12.0,-100.00,WSW,246,4.0,20.0,42,0.00,,,0.00,66.000000,,2013-10-04 23:53:00,
2013-10-04 18:02:00,33.0,12.0,-100.00,WSW,246,4.0,20.0,42,0.00,,,0.00,66.000000,,2013-10-05 00:02:00,
2013-10-04 18:12:00,33.0,12.0,-100.00,WSW,246,4.0,20.0,42,0.00,,,0.00,66.000000,,2013-10-05 00:12:00,
2013-10-04 18:22:00,33.0,12.0,-100.00,WSW,246,4.0,20.0,42,0.00,,,0.00,66.000000,,2013-10-05 00:22:00,
2013-10-04 18:53:00,31.0,10.0,-100.00,NNW,327,8.0,22.0,40,0.00,,,0.00,19.000000,,2013-10-05 00:53:00,
2013-10-04 19:02:00,31.0,10.0,-100.00,NNW,327,8.0,22.0,40,0.00,,,0.00,19.000000,,2013-10-05 01:02:00,
2013-10-04 19:11:00,31.0,10.0,-100.00,NNW,327,8.0,22.0,40,0.00,,,0.00,19.000000,,2013-10-05 01:11:00,
2013-10-04 19:21:00,31.0,10.0,-100.00,NNW,327,8.0,22.0,40,0.00,,,0.00,19.000000,,2013-10-05 01:21:00,
2013-10-04 19:52:00,29.0,13.0,-100.00,SW,229,10.0,20.0,50,0.00,,,0.00,3.000000,,2013-10-05 01:52:00,
2013-10-04 20:02:00,29.0,13.0,-100.00,SW,229,10.0,20.0,50,0.00,,,0.00,3.000000,,2013-10-05 02:02:00,
2013-10-04 20:11:00,29.0,13.0,-100.00,SW,229,10.0,20.0,50,0.00,,,0.00,3.000000,,2013-10-05 02:11:00,
2013-10-04 20:22:00,29.0,13.0,-100.00,SW,229,10.0,20.0,50,0.00,,,0.00,3.000000,,2013-10-05 02:22:00,
2013-10-04 20:23:00,27.0,9.0,-100.00,WSW,252,4.0,12.0,47,0.00,,,0.00,0.000000,,2013-10-05 02:23:00,
2013-10-04 20:52:00,27.0,9.0,-100.00,WSW,252,4.0,12.0,47,0.00,,,0.00,0.000000,,2013-10-05 02:52:00,
2013-10-04 21:02:00,27.0,9.0,-100.00,WSW,252,4.0,12.0,47,0.00,,,0.00,0.000000,,2013-10-05 03:02:00,
2013-10-04 21:12:00,27.0,9.0,-100.00,WSW,252,4.0,12.0,47,0.00,,,0.00,0.000000,,2013-10-05 03:12:00,
2013-10-04 21:23:00,28.0,8.0,-100.00,West,259,9.0,16.0,42,0.00,,,0.00,0.000000,,2013-10-05 03:23:00,
2013-10-04 21:55:00,28.0,8.0,-100.00,West,259,9.0,16.0,42,0.00,,,0.00,0.000000,,2013-10-05 03:55:00,
2013-10-04 22:04:00,28.0,8.0,-100.00,West,259,9.0,16.0,42,0.00,,,0.00,0.000000,,2013-10-05 04:04:00,
2013-10-04 22:14:00,28.0,8.0,-100.00,West,259,9.0,16.0,42,0.00,,,0.00,0.000000,,2013-10-05 04:14:00,
2013-10-04 22:53:00,27.0,9.0,-100.00,West,259,10.0,23.0,46,0.00,,,0.00,0.000000,,2013-10-05 04:53:00,
2013-10-04 23:04:00,27.0,9.0,-100.00,West,259,10.0,23.0,46,0.00,,,0.00,0.000000,,2013-10-05 05:04:00,
2013-10-04 23:13:00,27.0,9.0,-100.00,West,259,10.0,23.0,46,0.00,,,0.00,0.000000,,2013-10-05 05:13:00,
2013-10-04 23:22:00,27.0,9.0,-100.00,West,259,10.0,23.0,46,0.00,,,0.00,0.000000,,2013-10-05 05:22:00,
2013-10-04 23:52:00,26.0,8.0,-100.00,WSW,250,12.0,25.0,46,0.00,,,0.00,0.000000,,2013-10-05 05:52:00,